Englewood, Florida, United States (34223)
Lat: 26.96N, Lon: 82.35W
Wx Zone: FLZ060
Local Info
Past Weather Observations for Wednesday, September 17, 2014

NOTE: This archive is for the closest National Weather Service station to Englewood. Information may differ from the station used for current weather conditions.

Click here for Long-term Archive

Time Weather Temperature Dewpoint Humidity Pressure Winds Precip Visibility
23:53
Partly Cloudy
73°F / 23°C 72°F / 22°C 94% 29.95 in
(1014 mb)
SSE 4.6 mph
(SSE 7 kph)
- 10SM
23:51
Partly Cloudy
73°F / 23°C 72°F / 22°C 94% 29.95 in
(1014 mb)
SSE 4.6 mph
(SSE 7 kph)
- 10SM
23:40
Mostly Cloudy
73°F / 23°C 72°F / 22°C 94% 29.95 in
(1014 mb)
S 4.6 mph
(S 7 kph)
- 10SM
22:53
Clear
73°F / 23°C 73°F / 23°C 100% 29.95 in
(1014 mb)
S 4.6 mph
(S 7 kph)
- 10SM
22:05
Mostly Cloudy
75°F / 24°C 73°F / 23°C 94% 29.98 in
(1015 mb)
SSE 4.6 mph
(SSE 7 kph)
- 10SM
21:53
Mostly Cloudy
75°F / 24°C 73°F / 23°C 94% 29.98 in
(1015 mb)
SSE 4.6 mph
(SSE 7 kph)
- 10SM
21:46
Mostly Cloudy
75°F / 24°C 73°F / 23°C 94% 29.98 in
(1015 mb)
SSE 4.6 mph
(SSE 7 kph)
- 10SM
21:14
Mostly Cloudy
75°F / 24°C 73°F / 23°C 94% 29.95 in
(1014 mb)
Calm - 10SM
20:53
Partly Cloudy
73°F / 23°C 73°F / 23°C 100% 29.95 in
(1014 mb)
Calm - 10SM
19:53
Clear
75°F / 24°C 73°F / 23°C 94% 29.95 in
(1014 mb)
Calm - 10SM
18:53
Clear
75°F / 24°C 73°F / 23°C 94% 29.95 in
(1014 mb)
NE 3.5 mph
(NE 6 kph)
- 10SM
17:53
Partly Cloudy
79°F / 26°C 73°F / 23°C 84% 29.92 in
(1013 mb)
N 3.5 mph
(N 6 kph)
0.00 in
(0.00 mm)
10SM
16:53
Mostly Cloudy
Light Rain
77°F / 25°C 73°F / 23°C 89% 29.92 in
(1013 mb)
NNW 8.1 mph
(NNW 13 kph)
0.01 in
(0.25 mm)
10SM
15:53
Mostly Cloudy
Light Rain
79°F / 26°C 73°F / 23°C 84% 29.92 in
(1013 mb)
SW 10.4 mph
(SW 17 kph)
0.01 in
(0.25 mm)
6SM
15:37
Partly Cloudy
Thunder Storms
79°F / 26°C 73°F / 23°C 84% 29.92 in
(1013 mb)
SW 9.2 mph
(SW 15 kph)
- 10SM
15:04
Partly Cloudy
79°F / 26°C 73°F / 23°C 84% 29.92 in
(1013 mb)
SW 13.8 mph
(SW 22 kph)
- 10SM
14:53
Partly Cloudy
77°F / 25°C 73°F / 23°C 89% 29.92 in
(1013 mb)
SW 11.5 mph
(SW 19 kph)
0.01 in
(0.25 mm)
10SM
14:32
Overcast
Light Rain
77°F / 25°C 73°F / 23°C 89% 29.95 in
(1014 mb)
SW 12.7 mph
(SW 20 kph)
0.01 in
(0.25 mm)
10SM
13:53
Clear
81°F / 27°C 73°F / 23°C 79% 29.95 in
(1014 mb)
SSE 4.6 mph
(SSE 7 kph)
0.00 in
(0.00 mm)
10SM
12:53
Mostly Cloudy
Light Rain
75°F / 24°C 73°F / 23°C 94% 29.98 in
(1015 mb)
S 6.9 mph
(S 11 kph)
0.09 in
(2.29 mm)
10SM
12:31
Overcast
Rain
75°F / 24°C 73°F / 23°C 94% 29.98 in
(1015 mb)
S 9.2 mph
(S 15 kph)
0.08 in
(2.03 mm)
5SM
12:16
Mostly Cloudy
Thunder Storms
75°F / 24°C 73°F / 23°C 94% 29.98 in
(1015 mb)
SSE 6.9 mph
(SSE 11 kph)
0.05 in
(1.27 mm)
4SM
11:53
Overcast
Light Rain
73°F / 23°C 72°F / 22°C 94% 29.98 in
(1015 mb)
SSW 5.8 mph
(SSW 9 kph)
0.19 in
(4.83 mm)
5SM
11:36
Overcast
Thunder Storms
73°F / 23°C 72°F / 22°C 94% 30.01 in
(1016 mb)
SSW 5.8 mph
(SSW 9 kph)
0.18 in
(4.57 mm)
3SM
11:31
Overcast
Thunder Storms
73°F / 23°C 72°F / 22°C 94% 30.01 in
(1016 mb)
W 9.2 mph
(W 15 kph)
0.17 in
(4.32 mm)
1 3/4SM
11:19
Overcast
Thunder Storms
73°F / 23°C 72°F / 22°C 94% 30.01 in
(1016 mb)
W 11.5 mph
(W 19 kph)
0.10 in
(2.54 mm)
1 1/4SM
11:14
Mostly Cloudy
Thunder Storms
73°F / 23°C 70°F / 21°C 89% 30.01 in
(1016 mb)
NW 17.3 mph
(NW 28 kph)
0.06 in
(1.52 mm)
1 3/4SM
11:04
Mostly Cloudy
Thunder Storms
81°F / 27°C 75°F / 24°C 84% 30.01 in
(1016 mb)
Calm - 10SM
10:53
Partly Cloudy
82°F / 28°C 75°F / 24°C 79% 30.01 in
(1016 mb)
NNW 4.6 mph
(NNW 7 kph)
- 10SM
09:53
Partly Cloudy
81°F / 27°C 73°F / 23°C 79% 30.01 in
(1016 mb)
Calm 0.00 in
(0.00 mm)
10SM
08:53
Overcast
Light Rain
79°F / 26°C 75°F / 24°C 89% 30.01 in
(1016 mb)
NE 5.8 mph
(NE 9 kph)
0.00 in
(0.00 mm)
10SM
07:53
Mostly Cloudy
79°F / 26°C 75°F / 24°C 89% 30.01 in
(1016 mb)
Calm - 10SM
06:53
Mostly Cloudy
75°F / 24°C 73°F / 23°C 94% 29.98 in
(1015 mb)
Calm - 10SM
05:53
Mostly Cloudy
75°F / 24°C 73°F / 23°C 94% 29.98 in
(1015 mb)
Calm - 10SM
04:53
Partly Cloudy
75°F / 24°C 73°F / 23°C 94% 29.98 in
(1015 mb)
Calm 0.01 in
(0.25 mm)
10SM
03:53
Partly Cloudy
Light Rain
75°F / 24°C 73°F / 23°C 94% 29.98 in
(1015 mb)
WNW 6.9 mph
(WNW 11 kph)
0.02 in
(0.51 mm)
10SM
02:53
Partly Cloudy
77°F / 25°C 72°F / 22°C 83% 29.98 in
(1015 mb)
SW 4.6 mph
(SW 7 kph)
- 10SM
01:53
Clear
75°F / 24°C 72°F / 22°C 89% 29.98 in
(1015 mb)
S 3.5 mph
(S 6 kph)
- 10SM
00:53
Partly Cloudy
75°F / 24°C 72°F / 22°C 89% 30.01 in
(1016 mb)
Calm - 10SM
Time Weather Temperature Dewpoint Humidity Pressure Winds Precip Visibility


Weather for websites

WeatherForYou.com, LLC is not responsible for any damages or problems caused by this service. Current weather conditions are obtained from the closest station including government and personal stations which may have varying degrees of accuracy. Weather forecasts are derived from the NOAA NDFD. Like all things, this site belongs to Jesus Christ... He just trusts me to maintain it. If you have any questions or comments email webmaster@weatherforyou.com

Copyright © 2014, WeatherForYou.com LLC. All rights reserved.